Temperature
14 15 15 15 13 11 14 14 14 15 16 16 16 16 15 15 16 16 15 16 16 16 16 16 16 16 16 16 16 16 16 17 17 17 17 17 17 17 17 17 17 17 16 16 16 16 16 16 16
14 14 15 15 12 13 14 14 14 15 16 16 16 15 15 15 15 15 15 15 16 16 16 16 16 16 16 16 16 16 16 16 16 16 16 16 16 16 16 16 16 16 16 16 16 16 16 16 16
14 14 15 11 12 13 15 15 14 15 16 16 15 15 15 15 15 15 15 15 15 16 16 16 16 16 16 16 16 16 16 16 16 16 16 16 16 16 16 16 16 16 16 16 16 16 16 16 15
14 15 14 11 13 13 14 15 15 15 16 16 15 14 14 15 15 15 15 15 15 15 16 16 16 16 16 16 16 16 16 16 16 16 16 16 16 16 16 16 16 16 16 16 16 15 15 15 15
14 14 11 11 13 13 13 14 15 15 15 15 14 13 14 14 15 15 15 15 15 15 15 15 16 16 16 16 16 16 16 16 16 16 16 16 16 16 16 16 16 16 16 15 15 15 15 15 15
14 11 11 11 12 13 13 14 15 14 14 14 14 13 14 14 15 15 15 15 15 15 15 15 15 15 15 15 15 15 15 15 15 15 15 15 15 15 15 15 15 15 15 15 15 15 15 15 15
12 10 11 12 12 13 14 15 14 14 14 14 15 13 13 14 14 14 14 14 14 15 15 15 15 15 15 15 15 15 15 15 15 15 15 15 15 15 15 15 15 15 15 15 15 15 15 15 15
13 10 12 11 12 13 14 14 14 15 14 15 15 13 13 14 14 14 14 14 14 14 15 15 15 14 14 14 14 14 14 14 14 14 14 14 14 14 14 14 14 14 14 14 14 14 14 14 14
13 10 11 11 12 13 13 13 14 14 14 14 14 15 15 14 14 14 14 14 14 14 14 14 14 14 14 14 14 14 14 14 14 14 14 14 14 14 14 14 14 14 14 14 14 14 14 14 14
12 10 11 12 12 13 13 13 13 13 13 13 14 14 14 14 14 14 14 14 14 14 14 13 13 13 13 13 13 13 13 13 13 14 14 14 14 14 14 14 14 14 14 14 14 14 14 14 14
10 10 11 12 13 13 13 13 13 13 12 13 14 14 14 14 13 14 14 14 14 13 13 13 13 13 13 13 13 13 13 13 13 13 13 13 13 13 13 13 13 13 13 13 13 13 13 13 13
10 10 11 12 13 13 12 13 12 12 14 15 15 15 14 14 14 14 14 13 13 13 13 13 13 12 12 12 12 12 13 13 13 13 13 13 13 13 13 13 13 13 13 13 13 13 13 13 13
10 11 11 12 12 12 12 12 12 12 14 14 14 14 14 14 14 13 13 13 13 13 12 12 12 12 12 12 12 12 12 12 12 12 12 12 12 12 12 12 12 12 12 12 12 12 12 12 12
10 10 11 11 11 11 11 11 11 12 13 13 13 13 13 13 13 13 13 13 12 12 12 12 12 12 12 12 12 12 12 12 11 11 11 11 11 11 11 11 11 11 11 11 11 11 11 11 11
10 10 10 10 10 11 10 10 9 13 13 13 13 13 13 13 13 13 13 13 12 12 12 12 12 11 11 11 11 11 11 11 11 11 11 11 11 11 11 11 11 11 11 10 10 10 11 11 11
10 10 10 10 9 10 10 10 11 12 12 11 12 12 13 13 13 13 13 12 12 12 12 12 11 11 11 11 11 11 11 11 11 11 10 10 10 10 10 10 10 10 10 10 10 10 10 10 10
8 8 9 10 9 9 9 9 10 11 11 11 11 12 12 12 12 12 12 12 12 12 12 11 11 11 11 11 10 10 10 10 10 10 10 10 10 10 10 9 9 9 9 9 9 9 9 9 9
8 8 8 9 9 8 8 8 9 10 10 10 10 11 12 12 12 12 12 12 12 12 11 11 11 11 10 10 10 10 10 10 10 10 9 9 9 9 9 9 9 9 8 8 8 8 8 8 8
8 8 8 9 9 8 7 8 8 9 9 9 9 10 11 12 12 12 12 12 12 11 11 11 11 10 10 10 10 10 9 9 9 9 9 9 9 9 8 8 8 8 8 8 7 7 7 8 7
8 8 8 8 8 8 7 7 8 8 8 9 9 10 11 11 12 12 12 11 11 11 11 10 10 10 10 10 9 9 9 9 9 9 9 8 8 8 8 8 8 7 7 7 7 7 7 7 7
7 7 8 8 8 7 7 8 8 8 8 9 10 10 11 11 12 12 11 11 11 11 10 10 10 10 9 9 9 9 9 9 8 8 8 8 8 8 7 7 7 7 7 6 6 6 6 6 6
7 8 8 8 7 6 7 7 7 7 7 7 8 9 10 11 12 11 11 11 11 10 10 10 10 10 9 9 9 8 8 8 8 8 8 7 7 7 7 7 7 6 6 6 6 6 6 5 5
7 7 6 7 6 6 5 6 7 7 8 8 7 8 10 11 11 11 11 11 11 10 10 10 10 9 9 9 8 8 8 8 7 7 7 7 7 7 6 6 6 6 6 6 5 5 5 5 5
6 5 5 4 4 5 5 5 6 6 7 8 7 8 9 10 10 10 10 10 10 10 10 9 9 9 9 8 8 8 8 7 7 7 7 6 6 6 6 6 6 5 5 5 5 5 5 5 5
6 6 5 5 4 5 5 5 6 7 7 7 7 8 9 9 10 10 10 10 10 9 9 9 9 9 9 8 8 8 7 7 6 6 6 6 6 6 6 5 5 5 5 5 5 5 5 4 4
5 6 5 6 5 5 4 4 6 6 6 7 7 8 8 9 9 10 10 10 9 9 9 9 9 9 8 8 7 7 7 6 6 6 6 5 5 5 5 5 5 5 5 4 4 4 4 4 4
5 5 5 4 4 4 4 4 5 6 6 6 6 7 8 9 9 9 9 9 9 9 9 8 8 8 8 7 7 7 6 6 6 6 5 5 5 5 5 5 4 4 4 4 4 4 4 4 4
5 4 3 4 5 6 6 5 6 7 7 6 5 6 7 8 8 9 9 9 9 9 8 8 8 7 7 7 6 6 6 6 5 5 5 5 5 5 5 4 4 4 4 4 4 4 4 3 4
4 4 4 3 3 4 5 6 6 6 6 6 5 6 7 8 8 8 8 8 8 8 8 8 7 7 7 6 6 6 6 5 5 5 5 5 4 4 4 4 4 4 4 3 3 3 3 3 3
5 4 3 4 3 2 3 5 6 5 5 5 5 6 7 7 7 7 8 8 8 8 7 7 7 6 6 6 6 5 5 5 5 4 4 4 4 4 4 4 4 4 3 3 3 3 3 3 3
Wind_Speed
4 3 3 4 5 4 3 5 3 2 2 1 2 5 8 6 4 4 1 1 3 2 2 5 8 8 9 9 9 9 9 9 9 8 7 7 6 6 5 4 4 4 4 3 3 3 3 3 3
1 2 5 5 5 2 5 4 4 3 3 4 3 4 5 3 2 4 1 1 3 3 4 5 9 9 9 9 10 10 9 9 9 8 8 7 7 6 5 4 4 3 2 2 3 3 3 3 3
1 3 4 5 4 6 5 4 4 1 2 3 4 4 3 3 2 3 1 3 4 4 5 6 9 9 9 9 9 9 9 9 9 9 8 8 7 7 6 6 5 4 3 2 2 2 2 3 3
3 4 5 4 4 5 4 2 3 3 3 3 4 4 2 1 1 2 3 5 6 5 6 7 9 9 9 10 10 10 9 9 9 9 8 8 8 8 7 7 6 5 5 4 3 2 2 2 2
4 4 4 1 4 4 4 3 2 2 3 2 4 5 1 4 3 4 5 5 6 5 6 8 9 9 10 10 10 10 10 10 10 10 9 9 9 9 9 8 7 7 6 5 4 3 2 1 1
4 4 4 4 4 4 3 2 2 3 3 3 5 5 2 2 3 4 5 5 5 5 7 8 9 9 9 10 10 11 10 10 11 10 10 10 10 9 9 9 8 7 7 7 5 4 3 2 1
5 5 5 5 3 3 2 1 4 4 3 4 6 6 1 1 2 4 5 6 6 6 6 8 9 9 9 9 10 10 10 10 11 11 11 10 10 10 9 10 9 8 8 7 7 6 4 3 2
5 5 3 3 4 4 1 1 2 4 3 3 5 7 6 5 4 6 6 6 6 5 5 6 8 9 9 9 9 10 10 10 11 11 11 11 10 10 10 9 9 9 8 8 8 8 7 5 4
4 4 4 6 6 4 1 2 1 1 4 2 1 4 4 8 7 7 5 4 4 4 4 4 5 7 7 8 9 9 9 10 10 10 10 10 9 9 9 10 9 9 8 8 8 8 7 6 5
4 4 7 4 4 3 1 2 2 3 2 1 1 2 5 7 8 7 6 4 3 2 2 2 3 4 6 6 8 8 8 9 9 9 9 9 8 8 8 9 9 9 9 7 7 7 7 6 5
5 6 4 2 2 2 2 1 1 5 4 7 7 7 7 7 7 7 6 6 5 3 2 1 2 3 4 4 5 6 6 7 8 8 8 8 8 7 8 7 7 7 7 6 6 6 6 5 4
4 4 3 2 1 2 2 2 2 5 7 4 6 8 8 9 9 9 8 6 5 4 3 1 2 2 3 4 3 4 4 4 5 6 7 6 4 4 4 4 5 5 5 4 4 3 4 4 4
4 2 1 2 1 1 1 3 3 6 6 1 4 8 10 10 8 6 6 6 5 4 4 3 2 2 2 2 2 3 3 3 4 5 6 5 3 2 2 3 4 4 4 3 2 2 3 3 3
4 2 2 2 2 2 3 4 3 9 5 4 6 8 10 10 9 6 6 6 6 6 5 3 3 3 2 2 1 1 2 3 3 4 4 4 3 2 1 2 2 3 4 3 2 2 2 2 2
2 0 3 3 4 3 2 7 8 8 4 6 7 8 8 8 7 8 8 7 7 6 5 4 4 3 3 2 1 1 1 2 2 2 4 4 3 2 1 1 2 3 4 4 3 3 2 2 3
3 1 3 4 4 4 4 9 6 4 7 7 7 7 7 7 8 8 7 7 7 6 5 5 4 3 3 2 1 0 1 1 1 2 3 3 3 2 1 1 2 3 4 2 2 2 2 3 3
1 3 5 4 3 4 6 9 6 1 5 7 7 7 7 7 6 7 7 7 7 7 6 5 3 4 3 2 1 0 0 1 1 1 2 3 3 3 2 1 2 3 2 2 2 2 2 3 4
6 6 5 5 2 4 6 10 10 4 5 7 7 7 7 8 9 7 6 6 6 5 5 5 3 3 2 1 1 0 1 1 1 1 2 2 2 3 2 2 2 2 2 2 2 3 3 3 4
5 6 5 4 1 3 8 12 14 8 6 8 8 8 8 9 7 5 5 5 5 4 5 5 4 3 2 1 1 1 2 2 2 2 3 3 3 2 2 2 2 2 2 3 3 3 3 3 2
3 3 3 3 1 2 6 11 12 9 8 9 9 9 9 7 5 5 5 5 6 6 5 5 5 4 3 2 2 2 2 2 3 3 3 4 4 4 3 2 3 3 2 3 3 2 2 2 1
6 6 5 3 3 2 5 9 7 5 4 5 7 7 8 9 9 7 6 7 6 6 7 6 5 5 4 3 1 0 1 1 2 2 3 3 4 5 4 4 4 4 3 4 4 4 4 3 3
7 5 5 3 0 4 2 5 7 5 5 5 6 6 7 8 7 7 7 7 7 7 6 5 5 4 4 3 3 3 2 3 4 3 4 5 5 6 6 5 5 5 5 5 5 5 4 4 4
5 3 4 3 3 2 1 3 9 4 6 7 6 6 6 6 7 8 7 7 6 5 5 4 4 4 4 4 4 4 4 4 3 3 5 5 5 6 6 6 6 6 6 7 7 6 6 5 6
7 6 6 5 4 4 5 6 8 5 7 5 5 5 5 4 5 5 5 4 3 3 3 3 4 4 4 4 4 5 6 5 5 5 5 5 5 5 6 7 6 7 7 7 7 7 8 7 7
5 6 3 2 1 7 3 5 10 8 6 6 5 4 3 4 4 5 4 4 4 4 4 3 4 5 4 4 5 6 6 6 6 6 6 6 5 5 7 7 7 7 7 8 8 8 8 8 8
7 8 8 7 6 5 2 8 8 6 6 5 4 2 2 3 4 5 5 5 5 5 4 4 4 4 4 5 5 5 5 5 5 6 6 7 6 7 8 8 8 8 9 9 8 7 8 8 9
7 6 6 6 2 2 6 7 9 4 3 1 1 1 2 3 4 4 4 4 4 4 4 4 4 4 4 5 5 5 5 5 6 7 6 6 7 7 8 8 8 8 9 9 8 8 9 8 9
6 8 6 6 6 5 6 6 5 5 4 2 1 2 2 2 3 3 3 3 3 3 3 3 4 5 4 4 4 5 5 6 6 6 7 8 8 8 8 8 9 9 9 9 8 8 9 9 10
6 5 5 5 5 6 4 7 5 6 4 3 4 3 3 3 3 3 2 2 2 1 1 2 3 3 4 4 4 5 5 6 6 6 8 8 8 8 9 9 9 9 9 9 9 10 10 11 11
4 7 7 6 5 5 4 7 3 3 3 2 3 3 2 2 2 2 1 1 1 2 2 2 3 3 4 4 4 5 5 5 6 7 8 8 9 9 9 9 9 9 9 9 10 11 11 11 12
Wind_Direction
358 37 72 59 60 59 228 239 225 221 197 63 81 118 134 137 154 164 185 99 116 114 81 88 92 89 85 81 77 73 71 72 73 75 76 79 86 91 92 93 99 110 115 116 117 114 113 118 123
6 76 59 65 100 159 254 236 214 209 163 131 74 86 95 93 65 111 123 85 96 93 79 85 91 87 85 82 78 73 70 68 69 69 68 69 71 73 75 77 83 95 104 111 117 115 118 124 128
93 58 87 87 142 188 218 216 203 185 126 126 84 60 109 126 133 152 175 125 88 77 75 84 91 86 82 81 80 77 73 68 66 66 65 64 63 62 61 61 63 67 73 82 111 119 132 132 135
90 55 62 95 208 224 228 234 179 135 92 76 107 80 52 34 190 174 117 107 95 77 71 81 90 87 84 80 79 76 74 71 66 64 63 62 60 58 56 54 54 56 58 61 70 89 122 142 155
62 84 88 175 236 248 248 257 191 152 140 101 115 119 65 359 44 95 104 102 101 82 66 76 87 87 84 82 80 77 73 70 66 62 59 58 58 57 53 49 48 48 48 50 51 55 73 99 135
66 80 121 210 238 262 268 248 151 139 129 120 122 125 150 8 88 103 99 99 93 87 66 64 78 82 80 79 78 75 72 67 64 61 57 54 54 54 52 46 44 42 42 44 40 37 36 35 12
116 121 174 197 217 250 249 156 149 146 147 172 148 127 163 288 137 107 92 87 77 72 68 60 62 67 71 74 74 73 72 67 64 60 56 52 50 50 50 45 41 40 39 40 36 30 21 16 12
128 121 162 205 203 232 248 117 126 145 161 139 140 148 188 197 137 98 83 74 69 61 60 58 60 63 62 63 67 69 70 68 65 60 55 51 49 48 45 42 39 39 37 39 37 31 26 21 12
96 95 201 212 198 221 158 123 57 79 115 106 163 179 183 135 123 106 89 67 65 59 50 57 60 61 63 64 62 62 64 62 59 54 52 50 43 41 39 37 37 34 33 34 33 30 25 25 16
109 175 219 216 196 191 155 151 157 116 117 152 93 74 109 127 139 137 140 143 132 110 55 62 70 66 64 63 60 57 58 55 53 50 49 48 44 39 37 34 34 30 26 26 25 25 24 26 16
160 195 221 236 197 165 154 166 167 150 208 209 194 175 148 147 155 160 166 165 169 169 147 96 94 81 76 68 65 59 56 52 48 47 48 49 45 38 32 29 24 22 21 19 13 18 18 18 15
176 229 221 244 182 162 179 178 208 203 221 212 188 165 161 167 177 180 179 179 172 162 170 156 116 98 85 81 71 65 57 51 45 39 43 48 44 33 24 21 11 16 13 9 10 5 2 4 359
200 242 230 256 260 235 207 224 237 243 239 195 144 159 174 181 188 191 181 175 171 176 180 178 155 132 113 84 63 62 55 52 47 40 40 47 55 31 18 10 7 4 10 4 353 351 345 346 342
209 221 280 270 230 233 220 253 231 251 221 189 179 186 191 190 187 179 181 186 188 190 190 184 168 160 134 117 102 69 61 51 44 37 30 38 45 42 22 0 358 355 355 353 344 326 318 315 321
111 28 306 246 203 218 174 275 231 235 172 192 202 203 201 201 194 194 195 193 192 191 186 185 177 161 148 139 131 87 73 63 40 21 23 30 33 36 29 339 328 335 341 343 345 334 339 328 331
82 82 269 269 187 180 165 261 262 208 175 201 208 209 210 214 211 211 203 197 191 183 184 193 179 161 162 158 152 95 67 57 17 8 9 11 16 17 19 303 301 326 340 339 317 320 325 318 316
67 210 231 276 194 168 191 250 275 154 181 212 215 213 213 221 225 218 207 199 192 187 183 184 175 171 173 166 162 204 0 343 328 342 341 341 345 357 358 287 292 326 331 315 311 323 313 305 307
205 207 224 239 228 176 223 256 273 268 223 235 232 222 219 220 225 217 204 196 186 180 176 173 171 173 157 130 103 359 323 299 305 295 289 303 319 329 334 302 297 313 308 311 309 299 306 290 287
164 175 212 242 234 200 241 261 271 269 247 245 239 227 223 228 232 210 200 187 173 174 173 174 172 179 154 151 174 221 262 272 276 272 270 277 283 295 278 274 284 279 276 279 286 287 294 302 304
155 184 228 282 350 228 278 275 268 255 235 228 228 226 223 223 220 204 194 186 184 185 186 186 190 190 191 194 196 204 223 250 256 267 274 269 272 278 272 259 265 270 272 282 283 287 273 281 301
209 199 203 223 349 8 324 298 277 267 241 242 230 221 212 207 208 202 195 197 192 195 196 198 203 203 204 198 167 59 8 327 295 284 275 270 273 273 264 254 255 261 256 260 264 256 245 267 268
225 207 181 178 132 294 12 291 284 276 287 260 245 230 220 211 202 196 193 197 201 206 202 203 204 210 208 189 190 203 226 251 252 257 264 275 271 267 264 256 249 253 251 253 256 253 244 241 258
181 123 136 142 154 304 254 227 281 297 276 264 247 236 230 211 197 194 195 199 203 200 199 205 206 216 212 205 202 210 235 245 263 271 272 273 272 263 260 254 248 252 251 250 251 252 245 236 242
131 85 68 59 83 266 215 193 273 242 230 255 248 236 227 205 196 195 192 187 193 193 197 201 208 225 218 214 215 217 233 251 269 276 275 276 276 272 264 258 251 253 252 250 250 246 243 242 245
132 115 69 354 298 247 192 208 250 248 238 237 246 250 227 192 187 191 190 193 199 201 208 209 212 235 236 226 228 228 234 240 249 261 265 272 278 276 272 270 260 258 254 250 247 246 245 240 242
180 158 167 193 218 263 204 233 254 262 275 265 253 230 198 192 196 200 203 203 208 211 211 213 221 240 243 239 242 243 242 244 252 254 259 262 264 265 267 265 260 258 259 258 249 251 249 247 243
154 189 156 135 138 262 257 276 297 275 281 280 234 159 202 211 210 210 210 211 216 220 224 222 228 245 249 249 254 254 251 251 257 262 261 265 265 269 268 263 262 263 262 261 255 253 253 250 247
152 144 127 147 170 235 274 262 254 265 249 252 237 241 244 222 224 226 226 226 230 233 241 241 236 244 253 253 255 265 260 257 259 266 268 268 270 270 272 269 265 265 264 262 259 259 256 254 253
139 149 147 142 164 175 242 264 227 222 226 225 244 252 241 228 229 233 246 247 244 255 248 250 261 269 275 270 268 270 271 269 268 268 268 270 273 273 271 270 268 267 266 263 260 259 256 256 258
171 168 151 166 210 190 193 265 284 225 255 258 268 273 261 242 236 238 259 297 304 285 283 271 272 277 281 281 278 274 278 280 276 274 276 275 274 273 270 271 270 268 268 264 260 264 261 257 259
Height
1479 1480 1483 1486 1490 1501 1499 1491 1487 1485 1484 1483 1483 1484 1486 1490 1494 1499 1496 1495 1497 1499 1500 1502 1503 1504 1505 1505 1506 1506 1507 1507 1508 1508 1509 1510 1510 1511 1511 1512 1512 1513 1513 1514 1514 1514 1515 1515 1515
1479 1481 1485 1486 1495 1504 1497 1488 1486 1483 1482 1483 1483 1485 1486 1489 1490 1492 1493 1495 1497 1499 1500 1502 1503 1504 1504 1505 1506 1506 1507 1507 1507 1508 1508 1509 1510 1510 1511 1511 1512 1512 1512 1513 1513 1513 1514 1514 1514
1479 1481 1484 1488 1496 1498 1489 1483 1483 1481 1482 1482 1484 1486 1487 1489 1490 1492 1494 1495 1497 1499 1500 1501 1502 1503 1504 1505 1505 1506 1506 1507 1507 1507 1508 1508 1509 1509 1510 1510 1511 1511 1511 1512 1512 1512 1513 1513 1513
1480 1483 1485 1491 1492 1489 1484 1480 1480 1481 1482 1483 1484 1487 1488 1490 1491 1493 1494 1496 1497 1499 1500 1501 1502 1503 1503 1504 1505 1505 1505 1506 1506 1506 1507 1507 1508 1508 1508 1509 1509 1510 1510 1510 1511 1511 1511 1511 1512
1479 1481 1488 1493 1490 1485 1481 1480 1480 1480 1482 1483 1484 1487 1488 1491 1491 1493 1494 1496 1497 1499 1500 1501 1502 1502 1503 1503 1504 1504 1504 1505 1505 1505 1506 1506 1506 1507 1507 1507 1508 1508 1508 1509 1509 1509 1509 1510 1510
1479 1482 1493 1494 1488 1483 1480 1478 1479 1480 1482 1483 1484 1486 1489 1490 1491 1493 1495 1496 1498 1499 1500 1501 1501 1502 1502 1502 1503 1503 1503 1504 1504 1504 1504 1505 1505 1505 1506 1506 1506 1506 1507 1507 1507 1508 1508 1508 1508
1479 1484 1489 1488 1487 1483 1479 1478 1478 1480 1481 1483 1483 1486 1488 1490 1491 1493 1495 1496 1497 1498 1499 1500 1500 1501 1501 1501 1502 1502 1502 1502 1502 1503 1503 1503 1503 1504 1504 1504 1504 1505 1505 1505 1505 1505 1506 1506 1506
1477 1483 1486 1487 1485 1481 1477 1477 1478 1479 1480 1482 1483 1484 1486 1488 1490 1492 1494 1496 1497 1498 1498 1499 1499 1500 1500 1500 1501 1501 1501 1501 1501 1501 1502 1502 1502 1502 1502 1502 1502 1503 1503 1503 1503 1503 1503 1504 1504
1477 1486 1487 1484 1482 1478 1476 1477 1478 1478 1480 1481 1482 1483 1484 1487 1489 1491 1493 1494 1496 1496 1497 1498 1498 1499 1499 1499 1500 1500 1500 1500 1500 1500 1500 1500 1500 1500 1500 1500 1500 1501 1501 1501 1501 1501 1501 1501 1501
1477 1485 1481 1477 1476 1476 1476 1476 1477 1478 1479 1480 1481 1482 1483 1485 1487 1489 1491 1492 1494 1495 1496 1497 1497 1498 1498 1498 1499 1499 1499 1499 1499 1499 1499 1499 1499 1499 1499 1499 1499 1499 1499 1499 1499 1499 1498 1498 1498
1475 1478 1476 1474 1474 1474 1475 1476 1476 1477 1478 1477 1478 1479 1482 1484 1486 1488 1489 1491 1493 1494 1495 1496 1496 1497 1497 1497 1497 1498 1498 1498 1498 1497 1497 1497 1497 1497 1497 1497 1497 1497 1496 1496 1496 1496 1496 1495 1495
1475 1474 1474 1473 1473 1474 1475 1475 1476 1475 1474 1475 1476 1478 1480 1482 1484 1485 1487 1489 1491 1492 1493 1494 1495 1496 1496 1496 1496 1496 1496 1496 1496 1495 1495 1495 1495 1495 1494 1494 1494 1494 1494 1493 1493 1493 1492 1492 1492
1473 1473 1472 1472 1473 1473 1474 1474 1474 1472 1472 1474 1475 1476 1478 1480 1482 1484 1486 1488 1489 1490 1492 1493 1493 1494 1495 1495 1495 1495 1494 1494 1494 1493 1493 1493 1492 1492 1492 1492 1491 1491 1491 1491 1490 1490 1489 1489 1489
1471 1472 1472 1472 1472 1472 1473 1472 1473 1467 1470 1471 1472 1474 1476 1478 1480 1482 1483 1485 1487 1488 1490 1491 1491 1492 1493 1493 1493 1493 1493 1492 1492 1491 1491 1491 1490 1490 1489 1489 1489 1488 1488 1488 1487 1487 1486 1486 1485
1471 1472 1472 1470 1470 1471 1473 1472 1468 1464 1467 1468 1469 1471 1473 1475 1477 1479 1481 1483 1484 1486 1487 1488 1489 1490 1491 1491 1491 1491 1491 1490 1490 1489 1489 1488 1488 1487 1487 1487 1486 1486 1485 1485 1484 1484 1483 1482 1481
1471 1474 1475 1470 1469 1470 1475 1471 1462 1462 1464 1464 1466 1468 1470 1472 1474 1477 1479 1481 1482 1484 1485 1486 1487 1488 1489 1489 1489 1489 1489 1488 1488 1487 1487 1486 1485 1485 1484 1484 1483 1483 1482 1481 1481 1480 1479 1478 1477
1475 1477 1475 1471 1468 1469 1472 1469 1461 1461 1461 1462 1463 1465 1467 1469 1471 1473 1476 1478 1479 1481 1482 1483 1485 1485 1486 1486 1486 1486 1486 1486 1486 1485 1484 1484 1483 1482 1481 1480 1480 1480 1479 1478 1477 1476 1475 1474 1473
1475 1477 1474 1472 1468 1470 1470 1466 1460 1459 1460 1460 1460 1461 1463 1465 1467 1470 1472 1474 1476 1478 1479 1481 1482 1483 1483 1484 1484 1484 1484 1483 1483 1482 1482 1481 1480 1479 1478 1477 1477 1476 1476 1475 1474 1473 1472 1471 1469
1468 1472 1472 1470 1468 1469 1469 1465 1458 1456 1457 1456 1456 1457 1458 1460 1464 1466 1469 1471 1473 1474 1476 1477 1478 1479 1480 1480 1480 1480 1480 1480 1480 1479 1479 1478 1477 1476 1475 1474 1473 1473 1472 1471 1470 1469 1468 1467 1466
1468 1470 1471 1469 1468 1469 1468 1464 1455 1452 1451 1450 1451 1452 1453 1456 1459 1462 1464 1466 1468 1470 1472 1474 1475 1476 1477 1477 1478 1478 1477 1477 1477 1476 1475 1475 1474 1473 1472 1471 1470 1469 1468 1468 1467 1466 1464 1463 1463
1468 1470 1470 1470 1469 1469 1469 1461 1453 1447 1446 1446 1446 1447 1449 1451 1454 1457 1459 1462 1464 1467 1469 1471 1472 1473 1474 1475 1475 1474 1474 1473 1473 1472 1471 1471 1470 1469 1468 1467 1466 1465 1464 1463 1462 1462 1460 1459 1459
1466 1465 1467 1469 1473 1477 1474 1473 1455 1448 1446 1443 1442 1442 1443 1446 1449 1452 1455 1458 1461 1463 1466 1468 1469 1470 1471 1471 1471 1471 1470 1469 1469 1468 1467 1467 1466 1465 1464 1463 1462 1461 1460 1459 1458 1457 1456 1455 1454
1462 1464 1468 1471 1475 1479 1477 1478 1458 1449 1445 1441 1439 1439 1439 1442 1445 1449 1452 1455 1458 1460 1463 1464 1466 1467 1468 1468 1468 1467 1466 1466 1465 1464 1463 1462 1462 1461 1460 1459 1457 1456 1455 1454 1453 1452 1451 1450 1449
1461 1467 1473 1479 1480 1481 1474 1477 1459 1450 1441 1437 1436 1436 1437 1440 1443 1446 1449 1453 1455 1457 1459 1461 1462 1463 1464 1464 1464 1463 1462 1462 1460 1459 1458 1457 1456 1455 1455 1453 1452 1450 1449 1448 1447 1446 1445 1444 1443
1459 1468 1480 1481 1488 1479 1472 1470 1454 1440 1437 1435 1434 1435 1436 1438 1441 1443 1446 1449 1452 1454 1456 1457 1458 1459 1460 1460 1459 1459 1458 1457 1456 1455 1454 1452 1451 1450 1449 1447 1446 1444 1443 1442 1441 1439 1438 1437 1436
1457 1459 1472 1476 1478 1473 1472 1468 1447 1436 1434 1433 1433 1434 1435 1437 1439 1441 1444 1446 1449 1451 1453 1454 1455 1455 1455 1455 1455 1454 1454 1453 1451 1450 1449 1447 1446 1444 1443 1441 1439 1438 1437 1435 1434 1432 1431 1430 1429
1455 1459 1461 1473 1478 1476 1469 1462 1446 1433 1433 1432 1432 1433 1433 1435 1437 1440 1442 1444 1447 1448 1450 1451 1451 1451 1451 1451 1450 1450 1449 1448 1446 1445 1444 1442 1440 1439 1437 1435 1433 1431 1430 1428 1427 1425 1424 1423 1422
1448 1454 1464 1470 1471 1466 1458 1457 1447 1435 1432 1432 1432 1432 1433 1434 1436 1438 1440 1443 1445 1446 1447 1448 1448 1448 1447 1447 1446 1445 1444 1443 1441 1440 1438 1436 1434 1433 1431 1429 1427 1425 1423 1421 1420 1418 1417 1416 1414
1451 1454 1456 1465 1467 1467 1462 1449 1436 1433 1431 1432 1431 1431 1432 1433 1435 1437 1439 1441 1442 1443 1444 1444 1445 1444 1443 1443 1442 1441 1439 1438 1436 1435 1433 1431 1429 1427 1425 1423 1420 1418 1416 1414 1413 1411 1409 1408 1406
1443 1447 1453 1458 1466 1470 1465 1450 1430 1431 1431 1431 1431 1431 1432 1433 1434 1436 1437 1439 1439 1440 1441 1441 1441 1440 1439 1438 1437 1436 1434 1433 1431 1429 1427 1425 1423 1421 1418 1416 1414 1411 1409 1407 1405 1403 1401 1400 1398